Regional Weather Roundup
Issued by NWS San Angelo, TX

Home | Current Version | Previous Version | Text Only | Print | Product List | Glossary On
Versions: 1 2 3 4 5 6 7 8 9 10 11 12 13 14 15 16 17 18 19 20 21 22 23 24 25 26 27 28 29 30 31 32 33 34 35 36 37 38 39 40 41 42 43 44 45 46 47 48 49 50
000
ASUS44 KSJT 240611
RWRSJT
WEST CENTRAL TEXAS REGIONAL WEATHER ROUNDUP
NATIONAL WEATHER SERVICE SAN ANGELO TX
100 AM CDT TUE MAY 24 2016

NOTE: "FAIR" INDICATES FEW OR NO CLOUDS BELOW 12,000 FEET WITH NO
SIGNIFICANT WEATHER AND/OR OBSTRUCTIONS TO VISIBILITY.

TXZ049-054-064>066-071>073-076>078-098-099-113-114-127-128-139-140-
154-155-168>170-240700
...LOCATIONS ACROSS WEST CENTRAL TEXAS...

CITY           SKY/WX    TMP DP  RH WIND       PRES   REMARKS
SAN ANGELO     CLOUDY    77  71  82 SE12      29.85R
ABILENE        CLOUDY    75  71  87 S16       29.85R
DYESS AFB      CLEAR     74  67  77 SE20G25   29.83S
JUNCTION       MOCLDY    77  70  79 S13       29.88R
SWEETWATER     CLEAR     74  71  90 SE21      29.86F
BROWNWOOD      CLOUDY    75  72  88 S13       29.89R
COLEMAN        CLOUDY    74  71  88 SE10      29.89R
SONORA         CLEAR     77  72  83 S12G21    29.90F
OZONA          FAIR      73  70  88 S17       29.89R
BRADY          NOT AVBL
$$

TEXAS PANHANDLE/OKLAHOMA PANHANDLE

CITY           SKY/WX    TMP DP  RH WIND       PRES   REMARKS
AMARILLO       CLEAR     63  56  78 SE16      29.88S
BORGER         CLEAR     72  56  57 S22G32    29.81F
CANADIAN       CLOUDY    73  69  87 S12G18    29.81F
DALHART        CLEAR     66  61  84 SE14      29.84R
DUMAS          CLEAR     66  60  81 SE20G28   29.85R
GUYMON         NOT AVBL
HEREFORD       CLEAR     71  59  64 SE17G28   29.87R
PAMPA          CLOUDY    68  59  74 S10       29.84F
PERRYTON       CLEAR     71  67  89 S13G21    29.83F
$$

SOUTHERN PANHANDLE/SOUTH PLAINS/ROLLING PLAINS

CITY           SKY/WX    TMP DP  RH WIND       PRES   REMARKS
LUBBOCK        PTCLDY    72  68  87 S20       29.86R
SNYDER           N/A     73  69  87 S13G20    29.86R
CHILDRESS      CLOUDY    74  71  91 E8        29.86R
SEMINOLE       CLEAR     71  62  72 S10       29.87S
$$

PERMIAN BASIN

CITY           SKY/WX    TMP DP  RH WIND       PRES   REMARKS
MIDLAND        CLEAR     75  62  64 S15       29.84S
ODESSA         CLEAR     75  60  59 S14       29.85S
WINK           CLEAR     74  60  61 MISG      29.83R
$$

FAR WEST/SOUTHWEST MOUNTAINS/TRANS PECOS

CITY           SKY/WX    TMP DP  RH WIND       PRES   REMARKS
ALPINE         CLEAR     69  56  62 E5        29.99S
DRYDEN         NOT AVBL
EL PASO        PTCLDY    80  19  10 W24G36    29.89S
FORT STOCKTON  CLEAR     73  66  78 S22G32    29.83S
GUADALUPE PASS NOT AVBL
MARFA          CLEAR     63  53  70 N3        29.98R
PECOS          CLEAR     75  59  57 E5        29.82R
$$

DALLAS/FORT WORTH METROPLEX

CITY           SKY/WX    TMP DP  RH WIND       PRES   REMARKS
DFW AIRPORT    CLOUDY    78  69  73 S12       29.89F
FTW MEACHAM    MOCLDY    78  69  73 SE16      29.89S
DAL-EXECUTIVE  CLOUDY    76  69  79 SE10      29.90F
GRAND PRAIRIE  CLOUDY    77  68  74 SE8       29.91S
ADDISON        CLOUDY    78  71  81 SE13G18   29.90F
MESQUITE       CLOUDY    75  71  86 SE10      29.91F
LANCASTER      MOCLDY    75  68  79 SE7       29.92F
$$

NORTH CENTRAL TEXAS

CITY           SKY/WX    TMP DP  RH WIND       PRES   REMARKS
SHRMAN/DENISON CLOUDY    73  65  76 S13       29.89S
GAINESVILLE    CLOUDY    74  69  85 S7        29.91R
BRIDGEPORT     NOT AVBL
DENTON         CLOUDY    75  69  81 S9        29.89S
WAXAHACHIE     CLOUDY    75  71  86 SE7       29.92S
GRANBURY       CLOUDY    76  71  83 SE12      29.90S
$$

WESTERN NORTH TEXAS

CITY           SKY/WX    TMP DP  RH WIND       PRES   REMARKS
WICHITA FALLS  CLOUDY    74  70  87 E8        29.87F
VERNON         CLOUDY    74  68  81 E10       29.87R
BRECKENRIDGE   CLOUDY    77  71  81 SE10G16   29.85S
COMANCHE       CLOUDY    75  74  99 S12G17    29.89S
$$

CENTRAL AND SOUTH CENTRAL TEXAS

CITY           SKY/WX    TMP DP  RH WIND       PRES   REMARKS
AUSTIN/BERGSTM CLOUDY    76  71  85 SE9       29.92R
WACO           CLOUDY    77  70  79 SE14      29.90S
HILLSBORO      PTCLDY    73  70  89 SE12      29.91S
TEMPLE           N/A     75  71  87 S13       29.92R
KILLEEN-GRAY   CLOUDY    74  71  91 SE15      29.91R
FORT HOOD      CLOUDY    74  69  87 S13       29.91R
GEORGETOWN     CLOUDY    75  70  83 S9        29.92R
LAGO VISTA     CLOUDY    74  71  90 SE9G17    29.94R
SAN MARCOS     CLOUDY    75  73  94 S7        29.93F
NEW BRAUNFELS  CLOUDY    76  73  91 S6        29.90F
RANDOLPH AFB   CLOUDY    75  75 100 SE8       29.91S
SAN ANTONIO    LGT RAIN  76  73  91 S14       29.93R
STINSON        CLOUDY    78  73  84 SE7       29.91R
PLEASANTON     NOT AVBL
LA GRANGE        N/A     75  74  94 SE3       29.90F
GIDDINGS       CLOUDY    74  71  90 SE5       29.96S
$$

EAST TEXAS

CITY           SKY/WX    TMP DP  RH WIND       PRES   REMARKS
PARIS          CLOUDY    72  61  68 SE8       29.91F
CLARKSVILLE    NOT AVBL
TYLER          PTCLDY    75  68  78 S8        29.94F
LONGVIEW       PTCLDY    75  68  78 S12       29.93F
PALESTINE      PTCLDY    74  69  85 SE3       29.96S
NACOGDOCHES    CLOUDY    70  68  94 SE6       29.96F
$$

TEXAS HILL COUNTRY AND EDWARDS PLATEAU

CITY           SKY/WX    TMP DP  RH WIND       PRES   REMARKS
LLANO          CLOUDY    77  73  88 S9G16     29.92R
HORSESHOE BAY  MOCLDY    75  72  88 S9G17     29.90S
KERRVILLE      CLOUDY    74  72  93 S16       29.92F
FREDERICKSBRG  CLOUDY    74  70  86 S13G20    29.91S
ROCKSPRINGS    CLOUDY    73  72  94 SE22G29   29.92F
HONDO          CLOUDY    77  73  87 SE13      29.94S
UVALDE         CLOUDY    76  73  88 SE15      29.88F
DEL RIO        CLOUDY    80  74  81 E18G24    29.82R
$$

SOUTHEAST TEXAS

CITY           SKY/WX    TMP DP  RH WIND       PRES   REMARKS
COLLEGE STN    PTCLDY    73  72  96 SE5       29.95R
CALDWELL       CLOUDY    73  73 100 E6        29.97R
CROCKETT       CLOUDY    72  68  88 SE5       29.97F
BRENHAM        MOCLDY    75  73  95 CALM      29.95R
HUNTSVILLE     CLEAR     74  69  85 VRB3      29.94F
CONROE         CLOUDY    73  70  90 E6        29.94F
HOUSTON BUSH   MOCLDY    73  72  96 E6        29.93F
HOUSTON HOBBY  MOCLDY    76  73  91 E5        29.92S
PERLAND        CLOUDY    77  74  90 SE5       29.94R
WHARTON        CLOUDY    73  71  95 E3        29.92S FOG
$$

THE UPPER TEXAS COAST

CITY           SKY/WX    TMP DP  RH WIND       PRES   REMARKS
ORANGE         CLOUDY    75  70  85 SE3       29.98S
PORT ARTHUR    CLOUDY    74  70  87 E6        29.95R
GALVESTON      CLOUDY    77  75  93 SE12      29.95R
ANGLETON       MOCLDY    76  73  91 SE5       29.93R
BAY CITY       NOT AVBL
$$

TEXAS COASTAL BEND, RIO GRANDE PLAINS DEEP SOUTH TEXAS

CITY           SKY/WX    TMP DP  RH WIND       PRES   REMARKS
VICTORIA       PTCLDY    75  73  93 SE5       29.90S
BEEVILLE       MOCLDY    76  76 100 SE5       29.90S
ROCKPORT       MOCLDY    80  75  84 SE10      29.89R
PORT ARANSAS   CLOUDY    79  77  95 SE10G16   29.89R
PORT LAVACA    CLEAR     76  75  97 SE6       29.90R
CORPUS CHRISTI CLOUDY    80  75  84 SE9       29.88R
KINGSVILLE NAS CLOUDY    81  79  94 SE10      29.89R
COTULLA        CLOUDY    79  73  82 SE17G23   29.86S
LAREDO         CLOUDY    80  73  79 SE13      29.92S
BROWNSVILLE    CLOUDY    80  76  87 SE10      29.87S
PORT ISABEL    MOCLDY    82  77  84 SE14G23   29.86R
HEBBRONVILLE   CLOUDY    78  73  85 SE12      29.92R
MCALLEN        CLOUDY    82  76  81 SE13      29.87S
WESLACO        CLOUDY    81  75  82 SE8       29.86S
FALFURRIAS     CLOUDY    80  75  85 SE5       29.89R
EDINBURG       CLOUDY    81  75  83 SE5       29.88R
$$



USA.gov is the U.S. government's official web portal to all federal, state and local government web resources and services.